Location: Ottawa
(45.4170°N, 75.7000°W)
Time: 23:43:12
(UTC-04:00)

ISS - Pass Details

Date: 26 May 2021
Orbit: 417 x 422 km, 51.6° (Epoch: 13 June)

Event Time Altitude Azimuth Distance (km) Brightness Sun altitude
Rises 23:14:17 0° 297° (WNW) 2,368 0.9 -19.1°
Reaches altitude 10° 23:16:24 10° 294° (WNW) 1,502 -0.3 -19.2°
Enters shadow 23:19:35 61° 231° (SW) 479 -3.7 -19.5°
